STARLINK-2334, 47792

Orbit data source: Space-Track

STARLINK-2334, 47792 is a payload satellite owned by SpaceX/Seattle (US) in LEO that was launched on Thu, 11 Mar 2021 UTC via an FALCON 9 launch vehicle from the Air Force Eastern Test Range (AFETR). Payload-class satellites include a variety of spacecraft equipped with specific instruments for various scientific and technological missions. These include communications satellites like Starlink; space stations such as the ISS; scientific satellites like the Hubble; Earth observation satellites from companies like Planet Labs, Umbra, and HawkEye 360; GPS; miniature CubeSats for education and research; and military/defense satellites.

Loading next visibility...
Identifier
47792, 2021-018F
Orbit
LEO
Country
Flag of USUS
Related business
Manufacturer
SpaceX/Seattle
Mission
Operational Commercial Communications
Bus & Motor
STARLINK, Unknown motor
Mass
260 kg wet, ~248 kg dry
Launch date (UTC)
2021-03-11 (5 years ago)
Launch vehicle
FALCON 9
Launch site
Air Force Eastern Test Range (AFETR)
Object type
Payload
Rocket body
Debris
Shape & HBR
Box + 1 Pan, 10.1 m
Radar Cross Section
13.562 m², Large (>1 m²)

Expand to show TLE details & history
Last TLE update: 2 days ago

TLE from 2 days ago
0 STARLINK-2334
1 47792U 21018F   26171.14412601  .00001329  00000-0  54575-4 0  9992
2 47792  53.1603 122.5056 0001086  91.3376 268.7750 15.31706632292466
Epoch: 2026-06-20T03:27Z
TLE epoch observation values (Epoch: 2026-06-20T03:27:32.487Z)
Latitude
Longitude
162.25727°
Altitude
471.637 km
Speed
7.631 km/s
True Right ascension
08h 10m 01s
True Declination
0° 00' 00"
Sunlit
Object was in daylight at epoch
Visualization orbit readout
Latitude
Unknown
Longitude
Unknown
Altitude
Unknown
Speed
Unknown
Apparent Right ascension
Unknown
Apparent Declination
Unknown
Sunlit
N/A
Visualization observer readout
Local Sidereal Time
21:36:16
Azimuth
Unknown
Elevation
Unknown
Doppler factor
Unknown
Orbital elements
Apogee altitude
471.721 km
Perigee altitude
470.233 km
Semi-major axis
6,849.114 km
Eccentricity
0.00011
Inclination
53.1603°
RAAN
122.5056°
Arg. of periapsis
91.3376°
True anomaly
268.76256°
Mean anomaly
268.775°
Eccentric anomaly
268.76878°
Mean motion
3.82905 °/min
Orbital period
94.02 mins
BSTAR
0.000054575
Loading maneuver chart data...
Computing Atmospheric mass density...
Loading historical data...
Loading historical data...
Loading historical data...
Loading historical data...
Loading historical data...
Loading historical data...
Loading historical data...

Documentation

Showing up to 5 results
|